Location: ???????
(55.5931°N, 39.3286°E)
Time: 21:28:14
(UTC+00:00)

Cosmos 1975 - Pass Details

Date: 14 April 2024
Orbit: 514 x 533 km, 82.5° (Epoch: 22 May)

Event Time Altitude Azimuth Distance (km) Brightness Sun altitude
Rises 01:21:46 0° 343° (NNW) 2,650 6.5 -8.3°
Reaches altitude 10° 01:23:58 10° 337° (NNW) 1,758 5.5 -8.0°
Maximum altitude 01:27:38 44° 266° (W) 733 3.1 -7.6°
Drops below altitude 10° 01:31:17 10° 193° (SSW) 1,751 5.0 -7.1°
Sets 01:33:28 0° 187° (S) 2,637 5.9 -6.9°
